Weather History for Billings, MT

Change the Weather History Date:

Monday, August 5, 2013

  Actual Average Record
Temperature  
Mean Temperature 77 °F 74 °F  
Max Temperature 92 °F 88 °F 105 °F (1961)
Min Temperature 61 °F 60 °F 48 °F (1940)
Degree Days  
Heating Degree Days 0 0  
Month to date heating degree days 0 0  
Since 1 June heating degree days 73 111  
Since 1 July heating degree days 0 15  
Cooling Degree Days 12 9  
Month to date cooling degree days 28 45  
Year to date cooling degree days 449 403  
Since 1 June cooling degree days 422 386  
Growing Degree Days 26 (Base 50)    
Moisture  
Dew Point 51 °F    
Average Humidity 46    
Maximum Humidity 73    
Minimum Humidity 18    
Precipitation  
Precipitation T in 0.03 in 1.00 in (2011)
Month to date precipitation 0.19 0.15  
Year to date precipitation 8.18 9.45  
Snow  
Snow 0.00 in 0.00 in 0.00 in (2002)
Month to date snowfall T 0.0  
Since 1 June snowfall T 0.0  
Since 1 July snowfall T 0.0  
Snow Depth 0.00 in    
Sea Level Pressure  
Sea Level Pressure 29.89 in    
Wind  
Wind Speed 8 mph (WNW)    
Max Wind Speed 39 mph    
Max Gust Speed 50 mph    
Visibility 10 miles    
Events Rain , Thunderstorm    
T = Trace of Precipitation, MM = Missing Value Source: NWS Daily Summary

Daily Weather History Graph

Daily Weather History Graph

Search for Another Location

Airport:

Trip Planner

Search our weather history database for the weather conditions in past years. The results will help you decide how hot, cold, wet, or windy it might be!

Date:

Astronomy

Aug. 05, 2013 Rise Set
Actual Time 6:02 AM MDT 8:37 PM MDT
Civil Twilight 5:28 AM MDT 9:10 PM MDT
Nautical Twilight 4:45 AM MDT 9:53 PM MDT
Astronomical Twilight 3:56 AM MDT 10:41 PM MDT
Moon 5:01 AM MDT (8/5) 7:37 PM MDT (8/5)
Length of Visible Light 15h 42m
Length of Day
14h 34m
Waning Crescent, 1% of the Moon is Illuminated
Aug 5
Waning Crescent
Aug 6
New
Aug 14
First Quarter
Aug 20
Full
Aug 28
Last Quarter

Hourly Weather History & Observations

Time (MDT) Temp. Heat Index Dew Point Humidity Pressure Visibility Wind Dir Wind Speed Gust Speed Precip Events Conditions
12:53 AM 66.0 °F - 52.0 °F 60% 29.97 in 10.0 mi NNE 6.9 mph - N/A   Clear
1:53 AM 64.9 °F - 53.1 °F 65% 29.97 in 10.0 mi North 5.8 mph - N/A   Clear
2:53 AM 64.0 °F - 53.1 °F 67% 29.96 in 10.0 mi NNW 4.6 mph - N/A   Clear
3:53 AM 63.0 °F - 54.0 °F 72% 29.96 in 10.0 mi NW 4.6 mph - N/A   Clear
4:53 AM 66.9 °F - 55.9 °F 68% 29.94 in 10.0 mi Calm Calm - N/A   Clear
5:53 AM 63.0 °F - 54.0 °F 72% 29.94 in 10.0 mi Calm Calm - N/A   Partly Cloudy
6:53 AM 62.1 °F - 54.0 °F 75% 29.96 in 10.0 mi SW 6.9 mph - N/A   Partly Cloudy
7:53 AM 64.0 °F - 55.0 °F 73% 29.95 in 10.0 mi SSW 5.8 mph - N/A   Clear
8:53 AM 66.9 °F - 55.9 °F 68% 29.94 in 10.0 mi SSW 5.8 mph - N/A   Clear
9:53 AM 72.0 °F - 57.9 °F 61% 29.93 in 10.0 mi SSW 6.9 mph - N/A   Clear
10:53 AM 75.9 °F - 57.9 °F 54% 29.91 in 10.0 mi SSW 8.1 mph - N/A   Partly Cloudy
11:53 AM 81.0 °F 81.1 °F 57.9 °F 45% 29.90 in 10.0 mi SSW 8.1 mph - N/A   Partly Cloudy
12:53 PM 84.9 °F 83.6 °F 55.0 °F 36% 29.87 in 10.0 mi Variable 6.9 mph - N/A   Partly Cloudy
1:53 PM 88.0 °F - 42.1 °F 20% 29.83 in 10.0 mi South 9.2 mph - N/A   Partly Cloudy
2:53 PM 90.0 °F - 42.1 °F 19% 29.80 in 10.0 mi SW 11.5 mph - N/A   Scattered Clouds
3:53 PM 91.0 °F - 41.0 °F 17% 29.77 in 10.0 mi South 9.2 mph - N/A   Scattered Clouds
4:53 PM 84.9 °F - 44.1 °F 24% 29.78 in 10.0 mi North 13.8 mph 20.7 mph N/A   Mostly Cloudy
5:53 PM 80.1 °F - 46.9 °F 31% 29.81 in 10.0 mi North 15.0 mph - 0.00 in Rain Light Rain
6:19 PM 81.0 °F - 44.1 °F 27% 29.91 in 10.0 mi NNW 13.8 mph - 0.00 in Rain , Thunderstorm Light Thunderstorms and Rain
6:53 PM 70.0 °F - 51.1 °F 51% 29.89 in 10.0 mi NNW 31.1 mph 39.1 mph 0.00 in Rain Light Rain
7:53 PM 72.0 °F - 50.0 °F 46% 29.85 in 10.0 mi NNE 8.1 mph - 0.00 in   Mostly Cloudy
8:53 PM 71.1 °F - 51.1 °F 49% 29.84 in 10.0 mi ESE 3.5 mph - 0.00 in Rain Light Rain
9:53 PM 71.1 °F - 46.9 °F 42% 29.87 in 10.0 mi Variable 5.8 mph - 0.00 in   Scattered Clouds
10:53 PM 68.0 °F - 50.0 °F 52% 29.87 in 10.0 mi NNE 3.5 mph - N/A   Scattered Clouds
11:53 PM 66.9 °F - 50.0 °F 54% 29.89 in 10.0 mi NE 3.5 mph - N/A   Scattered Clouds